This demonstration page uses our WeatherBlox Daily Observations layout. Learn more.

Left ArrowRight Arrow

34.74481, -87.66753

Hourly Observations for October 15, 2021

Temp ( °F °C ) Dew Point ( °F °C ) Humidity (%) Winds ( mph kmh ) Pressure ( in mb ) Visibility ( mi km ) Precip ( " mm )
12:53 am 00:53 Hazy 67 19.4 62 16.7 84 84 SSE 3 6 29.93 1014 3 5 N/A
1:36 am 01:36 Clear with Mist and Fog 67 19.4 63 17.2 87 87 N N/A 29.94 1014 3 4 N/A
1:45 am 01:45 Clear 68 20 63 17.2 84 84 N N/A 29.94 1014 7 11 N/A
1:53 am 01:53 Clear 67 19.4 64 17.8 91 91 N N/A 29.93 1014 7 11 N/A
2:08 am 02:08 Clear with Mist and Fog 67 19.4 63 17.2 87 87 SE 5 7 29.94 1014 2 3 N/A
2:17 am 02:17 Clear 67 19.4 63 17.2 87 87 N N/A 29.94 1014 9 14 N/A
2:53 am 02:53 Clear 68 20 63 17.2 84 84 SSE 3 6 29.92 1013 10 16 N/A
3:53 am 03:53 Clear 67 19.4 62 16.7 84 84 SSE 3 6 29.91 1013 10 16 N/A
4:53 am 04:53 Mostly Clear 67 19.4 63 17.2 87 87 ESE 3 6 29.91 1013 10 16 N/A
5:53 am 05:53 Cloudy 70 21.1 65 18.3 84 84 N N/A 29.91 1013 10 16 N/A
6:53 am 06:53 Cloudy 72 22.2 65 18.3 79 79 S 7 11 29.91 1013 10 16 N/A
7:53 am 07:53 Cloudy 74 23.3 67 19.4 79 79 S 5 7 29.93 1014 10 16 N/A
8:53 am 08:53 Cloudy 75 23.9 68 20 79 79 SW 7 11 29.95 1014 10 16 0.03 0.76
9:01 am 09:01 Cloudy 75 23.9 69 20.6 82 82 SW 12 19 29.95 1014 10 16 N/A
9:08 am 09:08 Cloudy 75 23.9 69 20.6 82 82 SW 8 13 29.95 1014 10 16 N/A
9:22 am 09:22 Cloudy 76 24.4 69 20.6 79 79 SW 8 13 29.95 1014 10 16 N/A
9:40 am 09:40 Cloudy with Light Rain 75 23.9 69 20.6 82 82 WSW 7 11 29.96 1015 10 16 0.00 0.00
9:53 am 09:53 Cloudy with Light Rain 74 23.3 69 20.6 85 85 W 5 7 29.96 1015 3 5 0.03 0.76
10:53 am 10:53 Cloudy 75 23.9 70 21.1 84 84 S 3 6 29.96 1014 10 16 0.02 0.51
11:02 am 11:02 Cloudy 76 24.4 71 21.7 85 85 SSW 3 6 29.95 1014 10 16 N/A
11:40 am 11:40 Cloudy 78 25.6 71 21.7 79 79 SSW 8 13 29.95 1014 10 16 N/A
11:53 am 11:53 Cloudy 78 25.6 72 22.2 82 82 SSW 6 9 29.94 1014 10 16 N/A
12:16 pm 12:16 Mostly Cloudy 80 26.7 72 22.2 76 76 SSW 5 7 29.93 1014 10 16 N/A
12:42 pm 12:42 Mostly Cloudy 81 27.2 70 21.1 69 69 WSW 9 15 29.91 1013 10 16 N/A
12:53 pm 12:53 Mostly Cloudy 82 27.8 69 20.6 65 65 WSW 10 17 29.92 1013 10 16 N/A
1:53 pm 13:53 Mostly Cloudy 85 29.4 69 20.6 59 59 WSW 9 15 29.88 1012 10 16 N/A
2:53 pm 14:53 Mostly Cloudy 85 29.4 68 20 57 57 WSW 12 19 29.86 1011 10 16 N/A
3:53 pm 15:53 Cloudy with Light Rain 75 23.9 69 20.6 82 82 WNW 9 15 29.88 1012 8 13 0.02 0.51
4:53 pm 16:53 Sunny 76 24.4 69 20.6 79 79 N N/A 29.86 1011 10 16 0.00 0.00
5:42 pm 17:42 Cloudy with Heavy Rain 75 23.9 70 21.1 84 84 NW 9 15 29.87 1012 2 3 0.11 2.79
5:53 pm 17:53 Cloudy with Heavy Rain 74 23.3 69 20.6 85 85 SSW 9 15 29.89 1012 1 2 0.22 5.59
6:04 pm 18:04 Cloudy with Heavy Rain 73 22.8 69 20.6 87 87 N 5 7 29.87 1012 1 1 0.15 3.81
6:06 pm 18:06 Cloudy with Heavy Rain 73 22.8 69 20.6 87 87 NNE 5 7 29.86 1011 1 2 0.15 3.81
6:12 pm 18:12 Cloudy with Light Rain 73 22.8 69 20.6 87 87 SE 3 6 29.86 1011 3 5 0.16 4.06
6:53 pm 18:53 Mostly Cloudy 73 22.8 69 20.6 87 87 N N/A 29.88 1012 10 16 0.16 4.06
7:01 pm 19:01 Cloudy with Heavy Rain 73 22.8 68 20 84 84 WSW 8 13 29.88 1012 2 2 0.30 7.62
7:15 pm 19:15 Cloudy with Light Rain 72 22.2 69 20.6 91 91 ESE 6 9 29.86 1011 4 6 0.42 10.67
7:53 pm 19:53 Mostly Clear 72 22.2 69 20.6 91 91 SSE 9 15 29.85 1011 10 16 0.42 10.67
8:53 pm 20:53 Mostly Cloudy 73 22.8 68 20 84 84 SSE 3 6 29.85 1011 10 16 N/A
9:53 pm 21:53 Partly Cloudy 72 22.2 68 20 87 87 SE 5 7 29.85 1011 10 16 N/A
10:35 pm 22:35 Cloudy with Heavy Rain 72 22.2 66 18.9 82 82 W 12 19 29.90 1013 3 5 0.16 4.06
10:37 pm 22:37 Cloudy with Heavy Rain 72 22.2 66 18.9 82 82 WSW 14 22 29.90 1013 2 3 0.23 5.84
10:41 pm 22:41 Cloudy with Heavy Rain 71 21.7 66 18.9 84 84 NW 14 22 29.89 1012 2 2 0.31 7.87
10:48 pm 22:48 Cloudy with Heavy Rain 72 22 66 19 83 83 WNW 9 15 29.90 1013 2 3 0.40 10.16
10:53 pm 22:53 Cloudy with Heavy Rain 70 21.1 66 18.9 87 87 NW 12 19 29.90 1013 2 3 0.50 12.70
11:01 pm 23:01 Cloudy with Heavy Rain 70 21.1 66 18.9 87 87 NW 10 17 29.91 1013 2 3 0.09 2.29
11:13 pm 23:13 Cloudy with Rain 70 21.1 66 18.9 87 87 NNW 7 11 29.89 1012 3 5 0.15 3.81
11:20 pm 23:20 Cloudy with Heavy Rain 70 21.1 66 18.9 87 87 N 7 11 29.88 1012 4 6 0.17 4.32
11:53 pm 23:53 Cloudy 71 21.7 66 18.9 84 84 WNW 8 13 29.89 1012 10 16 0.18 4.57

Powered by AerisWeather